www.pogodaiklimat.ru

Погода и климат >> Архив погоды >> Перу >> Lima


АРХИВ ПОГОДЫ в Lima

Время (UTC), дата Ветер
(напр.,м/с)
 
Видим.   Явления Облачность Т
(С)
Тd
(С)
f
(%)
Тe
(С)
Тes
(С)
Комфортность P
(гПа)
Po
(гПа)
Тmin
(С)
Tmax
(С)
R
(мм)
R24
(мм)
S
(см)
00 14.05 Ю 4 10 км [диам. сложн. отлож. 25 мм] 4/4 600 м
[Sc]
+18.2 +15.7 85 +18 +18 по сезону 1015.5 1013.9 +20.8
03 14.05 Ю 4 10 км ясно +17.3 +15.7 90 +17 +17 по сезону 1015.8 1014.3
06 14.05 Ю 5 10 км 6/6 270 м
[St]
+17.3 +16.0 92 +17 +17 по сезону 1014.9 1013.4
09 14.05 Ю 3 8000 м дымка 6/6 240 м
[St]
+16.8 +15.8 94 +17 +17 по сезону 1014.4 1012.8
12 14.05 ЮВ 3 5000 м дымка 6/3 210 м
[St Ci fib]
+16.6 +15.6 94 +16 +17 по сезону 1014.5 1012.9 +16.4
15 14.05 Ю 4 7000 м дымка {туман} ясно +19.6 +16.5 82 +22 +30 комфорт 1015.9 1014.3
18 14.05 Ю 6 10 км {туман} 8/8 1000 м
[Sc]
+21.6 +16.2 71 +25 +26 комфорт 1014.7 1013.1
21 14.05 нст 3 10 км 8/1 1200 м
[Sc Ci fib]
+23.1 +16.3 66 +28 +30 душно 1012.9 1011.3
00 15.05 Ю 4 10 км 4/0
[Ci fib]
+19.1 +16.0 82 +21 +21 комфорт 1014.1 1012.5 +24.7
03 15.05 Ю 3 10 км 4/4 1200 м
[Sc]
+19.1 +15.6 80 +21 +21 комфорт 1015.2 1013.6
06 15.05 Ю 3 10 км 3/0
[Ac trans]
+18.3 +16.5 89 +19 +19 тепло 1014.5 1012.9
09 15.05 Ю 3 10 км ясно +17.2 +16.4 95 +17 +17 по сезону 1013.2 1011.7
12 15.05 Ю 2 7000 м дымка 3/3 300 м
[St]
+16.3 +16.0 98 +16 +17 по сезону 1014.1 1012.6 +15.8
15 15.05 нст 3 9000 м мгла {туман} ясно +21.9 +17.5 76 +26 +36 душно 1014.9 1013.2
18 15.05 нст 4 10 км ясно +24.0 +16.9 65 +28 +38 душно 1013.7 1012.0
21 15.05 Ю 5 10 км ясно +22.7 +17.0 70 +27 +29 душно 1012.7 1011.1
00 16.05 Ю 5 10 км ясно +20.4 +16.3 77 +23 +23 комфорт 1013.4 1011.8 +24.4
03 16.05 Ю 4 10 км ясно +20.8 +16.5 76 +24 +24 комфорт 1013.6 1012.0
06 16.05 Ю 3 10 км 3/0
[Ac trans]
+18.4 +16.6 89 +19 +19 тепло 1013.2 1011.6
09 16.05 Ю 3 10 км 4/0
[Ac trans]
+17.7 +16.2 91 +18 +18 по сезону 1011.7 1010.1
12 16.05 Ю 2 10 км 4/0
[Ac trans]
+17.2 +16.2 94 +17 +18 по сезону 1013.1 1011.5 +17.0
15 16.05 Ю 3 10 км 1/0
[Ac trans]
+22.2 +17.2 73 +27 +36 душно 1014.4 1012.8
21 16.05 Ю 5 10 км 5/0
[Ci fib]
+21.2 +16.9 76 +25 +27 комфорт 1011.8 1010.2
00 17.05 Ю 7 10 км 5/0
[Ci fib]
+18.9 +16.4 85 +20 +20 тепло 1012.4 1010.8 +23.1
03 17.05 ЮВ 6 10 км 10/10 240 м
[St]
+18.5 +16.5 88 +19 +19 тепло 1013.9 1012.2
06 17.05 Ю 4 10 км 8/8 240 м
[St]
+18.0 +16.5 91 +18 +18 по сезону 1013.0 1011.4
09 17.05 Ю 4 10 км 6/6 150 м
[St]
+16.9 +16.1 95 +16 +16 по сезону 1011.3 1009.7
12 17.05 Ю 2 2000 м слабая морось {туман} 10/10 60 м
[St]
+16.4 +16.2 99 +17 +17 по сезону 1012.1 1010.5 +16.1 0.0
15 17.05 Ю 4 6000 м дымка 10/10 150 м
[St]
+17.5 +16.4 93 +17 +17 прохладно 1013.8 1012.2
18 17.05 ЮЗ 3 10 км 3/3 420 м
[St]
+21.8 +16.8 73 +26 +34 душно 1012.6 1011.0
21 17.05 Ю 5 10 км ясно +20.1 +15.8 76 +23 +24 комфорт 1011.4 1009.8
00 18.05 Ю 4 10 км ясно +18.4 +15.6 84 +19 +19 по сезону 1012.4 1010.8 +22.4
03 18.05 Ю 6 10 км ясно +17.8 +15.6 87 +17 +17 по сезону 1014.0 1012.4
06 18.05 Ю 3 10 км ясно +17.1 +14.9 87 +17 +17 по сезону 1013.7 1012.1
09 18.05 Ю 2 10 км 9/9 420 м
[St]
+16.0 +15.0 94 +16 +16 по сезону 1012.3 1010.7
12 18.05 нст 2 7000 м 10/10 300 м
[St]
+16.9 +15.6 92 +17 +17 по сезону 1013.1 1011.5 +15.8
15 18.05 нст 2 7000 м дымка 10/10 300 м
[St]
+18.2 +15.5 84 +19 +19 по сезону 1014.8 1013.2
18 18.05 нст 4 8000 м мгла 6/6 450 м
[St]
+20.4 +15.6 74 +23 +27 комфорт 1014.1 1012.5
21 18.05 З 4 10 км 3/3 450 м
[St]
+18.8 +15.3 80 +20 +22 по сезону 1012.6 1011.0
00 19.05 СЗ 2 10 км 8/8 400 м
[St]
+17.8 +14.9 83 +19 +19 по сезону 1014.2 1012.6 +20.7
03 19.05 Ю 2 8000 м дымка ?/? +17.6 +15.2 86 +18 +18 по сезону 1015.2 1013.6
06 19.05 нст 1 8000 м дымка ясно +16.6 +15.4 93 +17 +17 по сезону 1014.7 1013.1
09 19.05 Ю 1 8000 м дымка 6/6 360 м
[St]
+16.2 +14.9 92 +18 +18 по сезону 1014.0 1012.5
15 19.05 З 4 6000 м дымка {туман} 10/10 270 м
[St]
+18.1 +15.7 86 +18 +18 по сезону 1016.0 1014.4
18 19.05 З 3 10 км {туман} 9/9 300 м
[St]
+19.4 +15.5 78 +21 +23 комфорт 1014.7 1013.1
21 19.05 нст 4 10 км ясно +20.1 +15.6 75 +23 +26 комфорт 1012.8 1011.2
00 20.05 Ю 3 8000 м дымка ясно +17.6 +15.4 87 +18 +18 по сезону 1013.6 1012.0 +20.4
03 20.05 Ю 3 7000 м дымка 5/5 450 м
[St]
+17.1 +15.6 91 +17 +17 по сезону 1015.1 1013.6
06 20.05 Ю 2 1600 м дымка 8/8 120 м
[St]
+16.5 +15.5 94 +17 +17 по сезону 1013.9 1012.4
09 20.05 Ю 2 6000 м дымка {туман} 10/10 120 м
[St]
+15.8 +15.2 96 +16 +16 по сезону 1012.8 1011.2
15 20.05 нст 2 3000 м дымка {туман} 10/10 90 м
[St]
+17.2 +16.1 93 +17 +17 по сезону 1015.1 1013.5
18 20.05 нст 3 10 км {туман} ясно +21.7 +16.3 71 +25 +38 комфорт 1014.0 1012.4

 

Местоположение метеостанции Lima (Перу): широта -12.00 долгота -77.11 высота над уровнем моря 13 м.

В архиве по умолчанию представлена погода в Lima за последнюю неделю. Архивные данные за месяц целиком и за предыдущие месяцы, начиная с января 2011 года, Вы можете получить, выбрав интересующий диапазон дат из раскрывающегося списка и нажав кнопку "Ввод!".


*Определитесь, кто Вы:
робот инопланетянин человек

Внимание! Время в таблицах - всемирное. Для получения местного времени необходимо прибавить поправку, которая в Lima равна -5 ч.

Смотрите также архив погоды в соседних городах и на ближайших метеорологических станциях:

Погода в Pisco (Перу) (216 км)
Погода в Huanuco (Перу) (257 км)
Погода в Anta (Перу) (300 км)
Погода в Tingo Maria (Перу) (326 км)
Погода в Ayacucho (Перу) (341 км)
Погода в Chimbote (Перу) (354 км)
Погода в Nazca (Перу) (394 км)
Погода в Andahualaylas (Перу) (450 км)
Погода в Trujillo (Перу) (487 км)
Погода в Pucallpa (Перу) (491 км)

Пояснения к столбцам:

Ветер - указаны скорость ветра в м/с - средняя за 10 мин, порывы в срок и между сроками (в фигурных скобках) и направление, откуда дует ветер: С - северный, СВ - северо-восточный, В - восточный, ЮВ - юго-восточный, Ю - южный, ЮЗ - юго-западный, З - западный, СЗ - северо-западный.
Видимость - горизонтальная дальность видимости в метрах или километрах. При видимости от 1 до 10 км при отсутствии осадков обычно наблюдается дымка, при ухудшении видимости до 1 км и менее - туман. В сухую погоду видимость может ухудшаться дымом, пылью или мглою.
Явления - указаны атмосферные явления, наблюдавшиеся в срок или в последний час перед сроком; фигурными скобками обозначены явления, наблюдавшиеся между сроками (за 1-3 часа до срока); квадратными скобками обозначены град или гололедные отложения с указанием их диаметра в мм.
Облачность - указаны через наклонную черту общая и нижняя облачность в баллах и высота нижней границы облаков в метрах; квадратными скобками обозначены формы облаков: Ci - перистые, Cs - перисто-слоистые, Cc - перисто-кучевые, Ac - высококучевые, As - высокослоистые, Sc - слоисто-кучевые, Ns - слоисто-дождевые, Cu - кучевые, Cb - кучево-дождевые. Подробнее классификацию облаков см. в Атласе облаков (PDF).
T - Температура воздуха - температура, измеренная на высоте 2 м над землей.
Td - Температура точки росы - температура, при понижении до которой содержащийся в воздухе водяной пар достигнет насыщения.
f - Относительная влажность воздуха - влажноcть воздуха, измеренная на высоте 2 м над землей.
Te - Эффективная температура - температура, которую ощущает одетый по сезону человек в тени. Характеристика душности погоды. При расчете учитывается влияние влажности воздуха и скорости ветра на теплоощущения человека.
Tes - Эффективная температура на солнце - температура, которую ощущает человек, с поправкой на солнечный нагрев. Характеристика знойности погоды. Зависит от высоты солнца над горизонтом, облачности и скорости ветра. Ночью, в пасмурную погоду, а также при ветре 12 м/с и более поправка равна нулю.
P - Атмосферное давление - приведенное к уровню моря атмосферное давление.
Po - Атмосферное давление - измеренное на уровне метеостанции атмосферное давление.
Tmin - Минимальная температура - минимум температуры воздуха на высоте 2 м над землей.
Tmax - Максимальная температура - максимум температуры воздуха на высоте 2 м над землей.
R - Количество осадков - Количество выпавших осадков за период времени, мм. При наведении курсора мыши на число - период времени, за который выпало указанное количество осадков.
R24 - Количество осадков - Количество выпавших осадков за 24 часа, мм.
S - Снежный покров - Высота снежного покрова, см. При наведении курсора мыши на число - состояние снежного покрова и степень покрытия местности в баллах.